This is the latest recevied weather packets stored in our database for station/object K7AEL. If no packets are shown the sender has not sent any weather packets the latest 10 day(s).
| Time | Temp. | Humidity | Pressure | Rain* | Wind** | Luminosity | Snow |
|---|---|---|---|---|---|---|---|
| 1777972550 | 15° C | 92% | 1013.6 hPa | 0 mm | - | 0 W/m² | - |
| 1777972249 | 15° C | 92% | 1013.8 hPa | 0 mm | - | 0 W/m² | - |
| 1777971947 | 14.44° C | 92% | 1013.9 hPa | 0 mm | - | 0 W/m² | - |
| 1777971644 | 15° C | 93% | 1013.5 hPa | 0 mm | - | 0 W/m² | - |
| 1777971342 | 15° C | 93% | 1013.6 hPa | 0 mm | - | 0 W/m² | - |
| 1777971040 | 14.44° C | 94% | 1013.8 hPa | 0 mm | - | 0 W/m² | - |
| 1777970738 | 15° C | 94% | 1014 hPa | 1.27 mm | - | 0 W/m² | - |
| 1777970436 | 14.44° C | 94% | 1014 hPa | 1.27 mm | - | 0 W/m² | - |
| 1777970132 | 15° C | 94% | 1013.9 hPa | 1.78 mm | - | 0 W/m² | - |
| 1777969829 | 15° C | 94% | 1014.4 hPa | 1.78 mm | - | 0 W/m² | - |
| 1777969525 | 15° C | 94% | 1014.5 hPa | 1.27 mm | - | 0 W/m² | - |
| 1777969222 | 15° C | 94% | 1015 hPa | 3.05 mm | - | 0 W/m² | - |
| 1777968918 | 15° C | 94% | 1015.2 hPa | 3.05 mm | - | 0 W/m² | - |
| 1777968615 | 15° C | 93% | 1015 hPa | 1.27 mm | - | 0 W/m² | - |
| 1777968312 | 15° C | 93% | 1015.3 hPa | 1.78 mm | - | 0 W/m² | - |
| 1777968008 | 15° C | 93% | 1015.5 hPa | 1.78 mm | - | 0 W/m² | - |
| 1777967704 | 15° C | 93% | 1015.7 hPa | 0 mm | - | 0 W/m² | - |
| 1777967401 | 15° C | 93% | 1015.8 hPa | 1.27 mm | - | 0 W/m² | - |
| 1777967099 | 15° C | 93% | 1015.7 hPa | 1.27 mm | - | 0 W/m² | - |
| 1777966796 | 15° C | 93% | 1015.7 hPa | 1.78 mm | - | 0 W/m² | - |
| 1777966493 | 15° C | 93% | 1015.6 hPa | 1.27 mm | - | 0 W/m² | - |
| 1777966190 | 15° C | 93% | 1015.8 hPa | 1.78 mm | - | 0 W/m² | - |
| 1777965886 | 15° C | 93% | 1016 hPa | 3.05 mm | - | 0 W/m² | - |
| 1777965582 | 15° C | 93% | 1016.4 hPa | 1.27 mm | - | 0 W/m² | - |
| 1777965278 | 15.56° C | 92% | 1016.4 hPa | 0 mm | - | 0 W/m² | - |
* Rain latest hour (hover to see other rain measurements)
** Current wind speed in m/s (hover to see current wind gust speed)